This is the latest recevied weather packets stored in our database for station/object DO7ZT-13. If no packets are shown the sender has not sent any weather packets the latest 10 day(s).
| Time | Temp. | Humidity | Pressure | Rain* | Wind** | Luminosity | Snow |
|---|---|---|---|---|---|---|---|
| 1777687224 | 6.11° C | 74% | 1024.8 hPa | 0 mm | 0.45 m/s, 132° | - | - |
| 1777686912 | 6.11° C | 76% | 1024.8 hPa | 0 mm | 0.45 m/s, 144° | - | - |
| 1777686624 | 6.11° C | 75% | 1024.8 hPa | 0 mm | 0.45 m/s, 166° | - | - |
| 1777686312 | 7.22° C | 74% | 1024.9 hPa | 0 mm | 0 m/s | - | - |
| 1777686024 | 6.11° C | 74% | 1024.9 hPa | 0 mm | 0.45 m/s, 102° | - | - |
| 1777685711 | 6.11° C | 75% | 1024.9 hPa | 0 mm | 0.89 m/s, 120° | - | - |
| 1777685424 | 7.22° C | 74% | 1025.1 hPa | 0 mm | 0.89 m/s, 144° | - | - |
| 1777685111 | 7.22° C | 72% | 1025.1 hPa | 0 mm | 0.45 m/s, 120° | - | - |
| 1777684824 | 7.22° C | 72% | 1025.1 hPa | 0 mm | 0.45 m/s, 120° | - | - |
| 1777684512 | 7.22° C | 72% | 1025 hPa | 0 mm | 0.45 m/s, 126° | - | - |
| 1777684224 | 6.11° C | 75% | 1025 hPa | 0 mm | 0.45 m/s, 132° | - | - |
| 1777683912 | 7.22° C | 71% | 1025 hPa | 0 mm | 0.45 m/s, 132° | - | - |
| 1777683624 | 7.22° C | 72% | 1025.1 hPa | 0 mm | 0.89 m/s, 132° | - | - |
| 1777683312 | 7.22° C | 74% | 1025.1 hPa | 0 mm | 0.45 m/s, 132° | - | - |
| 1777683024 | 7.22° C | 73% | 1025.1 hPa | 0 mm | 0.89 m/s, 132° | - | - |
| 1777682712 | 6.11° C | 74% | 1025.1 hPa | 0 mm | 0.45 m/s, 126° | - | - |
| 1777682424 | 6.11° C | 75% | 1025.1 hPa | 0 mm | 0.45 m/s, 126° | - | - |
| 1777682111 | 7.22° C | 75% | 1025.1 hPa | 0 mm | 0.45 m/s, 126° | - | - |
| 1777681824 | 7.22° C | 71% | 1025.2 hPa | 0 mm | 0 m/s | - | - |
| 1777681511 | 7.22° C | 73% | 1025.2 hPa | 0 mm | 0.89 m/s, 120° | - | - |
| 1777681224 | 7.22° C | 75% | 1025.2 hPa | 0 mm | 0.45 m/s, 139° | - | - |
| 1777680911 | 7.78° C | 71% | 1025.2 hPa | 0 mm | 0.89 m/s, 126° | - | - |
| 1777680624 | 7.78° C | 68% | 1025.2 hPa | 0 mm | 0 m/s | - | - |
| 1777680311 | 7.22° C | 69% | 1025.2 hPa | 0 mm | 0.45 m/s, 120° | - | - |
| 1777680036 | 7.22° C | 72% | 1025.3 hPa | 0 mm | 0 m/s | - | - |
* Rain latest hour (hover to see other rain measurements)
** Current wind speed in m/s (hover to see current wind gust speed)